Regional Weather Roundup
Issued by NWS

Home | Current Version | Previous Version | Text Only | Print | Product List | Glossary Off
Versions: 1 2 3 4 5 6 7 8 9 10 11 12 13 14 15 16 17 18 19 20 21 22 23 24 25 26 27 28 29 30 31 32 33 34 35 36 37 38 39 40 41 42 43 44 45 46 47 48 49 50

000
ASUS43 KLMK 231310
RWRKY
KENTUCKY REGIONAL WEATHER ROUNDUP
NATIONAL WEATHER SERVICE LOUISVILLE KY
900 AM EDT SAT MAY 23 2015

NOTE "FAIR" INDICATES FEW OR NO CLOUDS BELOW 12,000 FEET
WITH NO SIGNIFICANT WEATHER AND/OR OBSTRUCTIONS TO VISIBILITY.

KYZ001>023-026-027-061>063-070>075-231400-
WESTERN AND SOUTH CENTRAL KENTUCKY

CITY           SKY/WX    TMP DP  RH WIND       PRES   REMARKS
PADUCAH        CLOUDY    62  56  80 E5        30.33S
HENDERSON      CLOUDY    63  55  77 CALM      30.35R
OWENSBORO      PTSUNNY   63  55  75 SE3       30.37R
HOPKINSVILLE   CLOUDY    60  53  77 E2        30.36R
BOWLING GREEN  PTSUNNY   62  54  74 NE3       30.38R
GLASGOW        MOSUNNY   64  51  62 NE6       30.38R
$$

KYZ024-025-028>034-038-045-046-053-231400-
NORTH CENTRAL KENTUCKY

CITY           SKY/WX    TMP DP  RH WIND       PRES   REMARKS
LOUISVILLE/SDF PTSUNNY   60  52  74 SE3       30.37S
LOUISVILLE/LOU CLOUDY    60  52  74 S3        30.38R
FORT KNOX      PTSUNNY   61  54  77 CALM      30.36R
$$

KYZ035>037-039>044-047>052-055>060-089>105-231400-
NORTHEAST KENTUCKY

CITY           SKY/WX    TMP DP  RH WIND       PRES   REMARKS
LEXINGTON      CLOUDY    61  54  77 CALM      30.40R
COVINGTON      CLOUDY    61  50  67 E3        30.39R
FRANKFORT      CLOUDY    59  51  75 CALM      30.38R
$$

KYZ054-064>069-076>088-106>120-231400-
SOUTHEAST KENTUCKY

CITY           SKY/WX    TMP DP  RH WIND       PRES   REMARKS
JACKSON        PTSUNNY   55  46  71 CALM      30.42R
LONDON         PTSUNNY   57  47  69 SE5       30.41R
SOMERSET       CLOUDY    55  50  82 CALM      30.42R
MIDDLESBORO    PTSUNNY   53  49  85 CALM      30.44R
MONTICELLO     PTSUNNY   60  53  77 CALM      30.43R
$$



USA.gov is the U.S. government's official web portal to all federal, state and local government web resources and services.